Wind_Speed
13 12 9 9 10 13 17 21 24 26 26 26 26 25 26 30 30 28 28 28 28 25 23 23 23 25 25 22 23 29 29 31 33 36 38 39 41 40 40 40 39 41 37 33 34 39 40
13 12 12 12 14 14 17 22 26 28 27 27 30 25 25 26 27 25 27 26 29 30 26 26 27 27 29 25 21 24 26 27 30 34 37 39 40 43 47 46 46 43 42 40 39 38 41
12 14 14 15 16 18 21 25 27 28 28 30 33 31 27 26 28 28 25 24 26 27 29 30 32 33 34 27 27 29 29 29 31 32 34 37 40 42 43 45 46 46 48 48 47 42 38
14 14 16 19 22 24 27 30 30 30 31 34 35 34 32 29 29 30 31 27 28 29 32 32 34 37 38 33 34 36 34 37 40 40 39 41 44 44 43 44 44 46 48 51 51 42 40
15 16 18 21 24 27 29 30 31 31 33 35 37 36 33 31 32 33 34 33 36 33 35 35 36 39 38 40 40 42 43 44 44 46 47 48 48 48 49 48 49 49 48 46 46 43 42
17 18 20 23 27 29 31 30 32 36 39 38 39 36 37 35 36 35 36 39 40 37 41 42 40 41 44 44 45 50 52 55 56 55 55 52 52 54 56 58 57 46 51 50 51 53 47
19 21 23 27 30 31 30 31 37 40 41 39 39 39 38 38 40 41 44 46 45 44 45 45 48 49 50 51 54 60 65 64 61 63 64 64 65 63 53 54 55 58 62 59 54 55 57
21 23 26 28 29 31 34 38 38 40 40 39 40 41 41 40 38 42 45 46 47 48 49 53 55 56 57 60 66 67 67 69 71 72 71 71 73 69 67 61 62 62 63 64 63 60 57
22 25 27 30 32 36 37 38 41 41 42 44 43 43 42 43 45 49 51 52 53 57 59 62 64 68 72 74 72 73 73 73 75 78 77 78 75 74 73 70 70 70 68 65 66 65 63
24 27 31 34 36 35 37 40 41 43 44 44 42 40 44 47 51 54 55 57 60 63 66 70 74 78 73 74 78 82 83 83 84 83 83 85 83 79 72 70 75 73 68 69 69 73 73
27 30 32 34 35 38 41 41 45 45 47 42 42 44 49 53 56 59 63 66 68 70 74 81 78 80 76 84 86 86 87 90 90 86 82 83 78 74 75 73 76 73 72 72 71 72 71
32 34 35 37 38 40 42 45 47 46 42 44 45 51 56 58 60 63 66 69 73 75 85 81 82 86 85 86 90 93 91 85 85 78 71 74 72 74 75 75 74 73 73 72 71 73 74
33 33 36 36 40 44 45 45 44 44 46 47 53 57 60 64 66 68 72 76 77 81 85 86 88 89 92 93 88 75 68 62 65 74 74 72 65 65 67 70 66 58 64 66 64 60 67
34 35 37 40 44 46 45 45 45 48 49 55 60 64 66 69 72 75 79 81 84 88 90 93 95 95 87 84 75 65 55 52 51 52 54 55 56 64 64 56 45 49 51 55 52 47 60
35 38 40 42 43 46 45 46 48 52 57 61 64 69 72 75 78 82 84 88 91 94 97 99 95 87 77 64 60 54 50 49 48 47 45 45 45 48 51 60 57 49 33 42 45 48 53
39 39 40 43 47 48 46 48 52 57 61 65 69 73 76 80 84 86 90 95 96 99 92 81 74 68 59 54 50 48 44 41 38 34 25 28 37 33 36 39 48 42 50 51 51 45 51
36 39 43 47 45 45 47 52 56 60 65 71 74 76 81 84 89 92 95 96 96 84 77 67 60 56 50 46 43 41 35 29 26 21 21 26 29 28 24 23 30 49 48 41 39 42 32
35 41 44 45 45 47 52 58 63 67 70 74 76 80 85 90 92 96 96 95 79 68 62 57 52 48 43 41 38 35 27 22 20 23 25 25 27 29 22 17 19 15 22 41 47 46 45
39 43 45 46 48 53 59 64 69 73 75 78 81 84 89 93 94 95 91 75 69 62 55 50 45 42 38 36 37 29 24 23 27 27 30 26 28 30 25 19 24 19 26 19 17 38 27
44 45 48 50 54 58 63 68 73 75 77 81 84 89 93 95 95 91 79 70 64 57 48 44 38 36 34 30 30 29 22 25 25 26 28 28 29 31 30 27 29 32 25 28 22 15 27
44 49 50 53 58 63 68 72 73 77 80 83 89 92 97 91 83 74 71 65 58 52 44 38 34 33 34 30 26 25 25 23 22 21 23 27 23 24 21 17 19 28 26 22 22 22 13
48 51 52 57 62 67 72 72 75 79 83 87 92 96 97 85 78 71 65 60 51 46 40 34 32 29 29 28 27 26 26 21 19 17 16 13 15 17 12 15 19 22 19 15 14 18 16
52 51 55 61 66 70 73 73 77 81 86 91 96 96 96 81 75 68 60 51 45 36 31 30 32 32 28 25 25 24 25 20 17 9 10 12 16 12 8 13 17 15 18 18 15 16 14
48 52 58 65 69 71 71 75 80 84 89 94 96 92 86 78 70 60 52 45 35 27 28 29 31 35 30 28 26 23 20 16 11 9 13 19 13 11 12 15 13 18 20 13 15 21 19
52 57 62 66 68 69 72 77 81 85 91 93 89 83 79 72 65 51 44 39 28 27 27 31 31 36 32 27 25 18 16 11 11 18 14 17 15 13 10 16 17 11 6 3 7 8 15
57 58 63 66 67 70 75 79 83 88 90 87 80 76 68 66 59 49 40 36 31 31 27 35 41 39 27 26 23 20 18 17 13 18 15 19 16 17 18 20 19 17 15 14 13 14 14
57 61 63 64 67 71 75 79 83 86 83 80 72 65 62 58 51 43 36 34 32 31 30 31 28 24 23 25 24 21 18 19 21 21 20 19 19 21 23 25 26 23 22 22 20 19 20
59 59 60 64 67 70 75 79 82 81 76 69 62 58 56 52 47 42 36 32 31 30 30 29 27 26 25 23 24 24 22 21 22 23 24 22 23 24 24 24 24 26 27 26 27 28 28
56 57 61 63 66 72 76 78 77 72 63 59 55 52 50 48 44 39 34 31 30 29 26 27 27 25 23 21 22 24 26 26 25 26 26 27 28 29 29 29 29 30 31 33 34 34 36
Wind_Direction
323 329 341 345 351 352 353 352 349 344 340 339 340 339 341 345 350 351 351 352 351 349 341 336 334 329 325 315 300 299 298 290 285 284 281 281 281 281 278 274 269 278 283 274 267 260 261
316 316 324 332 335 338 340 342 341 338 336 334 332 332 328 333 336 340 344 345 348 345 344 343 339 338 333 323 322 311 306 303 298 293 289 285 280 278 280 280 276 276 273 272 266 262 260
297 298 302 311 318 320 323 329 335 337 334 335 335 329 322 319 323 328 328 333 332 334 332 329 329 329 329 323 325 325 319 313 309 304 299 294 291 288 284 280 278 278 273 271 267 264 263
289 292 296 304 312 317 319 323 323 328 327 332 329 325 319 316 314 317 321 319 322 326 321 317 316 316 316 313 311 313 310 307 305 304 300 300 297 292 289 286 280 277 272 271 271 268 262
290 294 299 303 308 312 314 315 318 322 323 320 323 322 318 311 313 313 311 309 308 310 309 308 308 307 304 301 301 303 304 303 302 299 297 294 292 293 288 285 279 279 283 284 276 271 262
291 295 299 306 308 308 310 310 314 318 320 317 318 317 315 309 306 307 310 308 305 301 308 304 303 302 300 298 298 301 297 297 295 296 294 292 288 288 287 287 287 287 273 268 265 262 256
293 295 300 304 306 306 306 307 310 314 315 313 314 315 312 307 302 302 303 303 302 301 304 301 302 299 297 298 297 298 298 295 293 291 292 290 289 290 287 279 276 274 276 272 268 266 265
294 298 300 302 303 303 304 308 312 314 313 314 313 312 310 310 306 303 300 298 301 302 301 300 300 298 298 297 297 295 295 294 292 292 291 288 286 286 283 278 273 271 270 272 273 267 264
296 298 299 301 302 305 308 311 312 311 313 311 309 311 312 313 307 307 307 304 306 306 303 303 302 302 302 299 297 297 296 293 293 290 289 287 289 286 281 278 272 272 273 271 269 265 263
297 299 300 302 303 308 310 310 310 310 310 310 311 312 311 307 306 307 308 308 308 307 306 305 303 303 301 300 299 299 299 297 296 297 296 293 290 287 279 273 268 269 267 262 261 260 262
298 301 305 307 308 310 310 311 310 310 311 313 311 309 310 311 310 310 311 312 311 309 309 307 307 304 303 301 300 303 300 300 299 298 293 290 283 274 273 268 258 264 258 254 253 253 254
300 301 305 307 309 311 312 310 311 310 310 310 308 310 310 311 312 312 313 311 309 309 310 309 307 307 305 305 307 305 307 302 299 289 277 274 268 262 259 254 253 254 251 251 249 248 247
301 304 304 307 310 313 311 311 312 310 310 309 310 310 312 313 312 312 312 312 311 309 309 309 310 309 311 312 311 306 298 286 273 271 270 266 262 263 265 262 259 255 253 254 250 246 248
301 303 304 309 312 313 313 313 312 312 313 313 313 314 315 315 313 313 313 313 312 311 310 312 313 314 316 313 308 301 295 291 287 282 277 270 264 257 258 261 262 257 252 247 249 256 255
302 305 308 309 311 316 314 313 313 316 318 318 318 316 315 314 314 315 316 315 313 312 312 313 316 317 313 308 306 301 298 296 292 289 285 282 272 266 261 254 251 245 241 241 250 250 250
303 306 308 309 311 314 314 316 318 319 319 318 317 316 315 316 316 318 317 315 315 315 319 321 318 314 311 308 304 303 301 300 296 293 293 287 283 274 269 259 243 247 252 253 251 262 267
306 307 309 311 315 317 317 318 319 319 319 318 318 318 318 320 320 318 318 317 319 322 323 319 316 314 313 311 308 310 311 304 298 292 288 289 290 288 287 295 266 244 250 252 248 234 244
308 313 317 316 316 317 320 320 319 320 320 320 320 320 322 321 321 319 317 320 325 324 319 319 317 315 314 312 313 316 313 311 305 302 295 295 289 295 296 295 286 253 251 255 255 251 255
311 314 319 318 317 317 319 319 319 320 320 321 323 323 322 321 319 319 323 325 324 320 318 317 317 313 313 314 316 318 316 312 309 304 297 298 299 306 304 290 285 276 237 216 237 250 263
312 312 316 317 318 318 319 319 320 320 322 324 324 323 322 322 321 323 324 324 321 320 318 316 317 311 311 310 312 321 312 308 303 302 295 292 296 299 310 302 278 278 273 269 238 250 256
312 318 316 317 318 321 321 320 321 324 325 325 324 323 323 324 326 326 325 323 321 318 317 317 315 311 311 308 304 313 312 309 299 305 301 289 296 298 301 299 290 287 286 261 258 247 252
314 316 315 317 319 320 320 321 324 326 325 325 323 322 322 325 326 324 323 322 320 318 318 318 313 312 312 311 310 312 314 321 323 307 304 311 311 301 295 283 298 286 288 248 236 245 234
312 311 314 319 320 320 320 323 326 325 325 324 323 322 322 327 325 325 323 321 320 318 320 318 318 318 314 312 309 307 311 321 326 321 304 313 301 307 333 311 289 286 288 288 282 242 221
309 309 315 320 320 319 321 326 327 325 324 323 323 323 326 327 326 327 324 323 321 319 320 310 315 321 315 312 309 305 307 308 314 302 295 299 291 305 355 344 328 306 283 276 240 239 257
313 316 319 319 318 321 325 327 325 325 324 324 325 328 328 327 329 329 326 322 320 312 290 283 293 317 311 305 308 297 301 302 268 269 274 276 281 282 285 299 312 338 346 237 253 245 239
314 318 319 319 321 325 326 325 325 324 324 325 330 331 330 330 335 334 332 327 310 307 290 288 298 309 304 303 304 300 300 301 279 268 267 263 267 284 296 302 299 296 294 285 286 279 277
316 319 319 320 324 325 326 325 324 325 327 329 334 335 336 336 338 336 330 325 320 318 315 312 310 304 297 300 300 298 294 291 292 293 274 272 279 287 287 284 285 288 284 279 278 275 275
317 319 320 323 324 326 325 325 326 328 331 335 340 341 342 342 343 343 339 334 330 325 321 317 312 310 305 296 291 297 298 296 294 292 294 290 290 294 292 286 282 279 276 271 267 267 265
318 319 322 323 325 326 325 327 329 332 337 342 346 347 350 352 353 351 350 347 343 338 334 332 330 326 321 311 300 293 299 299 302 300 295 296 296 297 296 294 290 284 279 276 275 271 268
Height
5812 5810 5807 5804 5802 5799 5797 5794 5791 5789 5786 5784 5781 5777 5773 5769 5766 5762 5758 5755 5752 5749 5746 5744 5742 5739 5737 5734 5732 5727 5726 5724 5722 5721 5719 5717 5714 5712 5710 5709 5707 5706 5707 5708 5708 5707 5706
5810 5809 5807 5803 5801 5798 5796 5793 5791 5788 5784 5781 5778 5776 5772 5768 5764 5761 5757 5753 5750 5746 5743 5739 5737 5734 5732 5728 5725 5722 5719 5717 5715 5713 5710 5708 5706 5702 5699 5698 5697 5697 5696 5696 5696 5697 5696
5807 5806 5804 5802 5800 5797 5794 5792 5788 5784 5782 5779 5775 5771 5769 5766 5762 5758 5755 5751 5747 5743 5739 5736 5732 5729 5726 5722 5718 5715 5712 5709 5707 5704 5702 5699 5696 5693 5691 5688 5687 5685 5684 5684 5686 5686 5686
5804 5803 5801 5800 5797 5794 5791 5788 5784 5781 5778 5775 5772 5767 5764 5761 5758 5754 5751 5747 5744 5740 5736 5731 5727 5723 5719 5716 5712 5708 5705 5701 5696 5693 5690 5686 5683 5682 5680 5677 5673 5672 5671 5669 5673 5676 5676
5801 5800 5798 5796 5793 5790 5787 5784 5781 5777 5774 5771 5767 5763 5759 5756 5751 5748 5745 5741 5737 5734 5729 5725 5721 5716 5713 5708 5703 5698 5694 5690 5686 5681 5677 5673 5669 5668 5665 5662 5659 5658 5659 5661 5658 5659 5659
5797 5796 5794 5792 5790 5786 5783 5780 5776 5773 5770 5766 5762 5758 5753 5749 5746 5742 5737 5733 5729 5725 5721 5715 5712 5710 5703 5697 5692 5687 5682 5678 5673 5668 5664 5661 5656 5654 5651 5649 5647 5647 5640 5641 5641 5641 5642
5793 5792 5791 5788 5785 5782 5779 5775 5772 5768 5764 5759 5755 5751 5746 5743 5738 5734 5732 5726 5723 5717 5711 5707 5701 5696 5691 5686 5680 5673 5668 5662 5657 5652 5647 5642 5640 5639 5636 5630 5630 5628 5626 5627 5626 5625 5624
5789 5788 5786 5784 5781 5777 5774 5770 5766 5762 5758 5753 5749 5744 5739 5735 5731 5727 5722 5716 5711 5706 5701 5693 5688 5682 5677 5672 5664 5659 5653 5647 5640 5633 5627 5624 5623 5620 5614 5612 5608 5608 5608 5613 5607 5605 5605
5786 5784 5782 5779 5775 5771 5768 5764 5760 5755 5751 5746 5741 5735 5731 5727 5722 5717 5710 5704 5698 5692 5687 5679 5672 5665 5658 5650 5642 5635 5630 5624 5619 5613 5607 5603 5603 5597 5590 5590 5585 5586 5588 5592 5589 5585 5586
5782 5780 5777 5773 5769 5766 5762 5757 5752 5747 5742 5737 5732 5728 5722 5717 5712 5705 5697 5691 5685 5676 5670 5664 5654 5647 5638 5629 5621 5612 5605 5600 5590 5585 5576 5574 5575 5571 5565 5565 5555 5562 5569 5564 5564 5561 5567
5777 5774 5771 5767 5763 5759 5754 5749 5744 5739 5733 5728 5723 5717 5712 5704 5698 5690 5684 5676 5667 5659 5647 5641 5634 5623 5614 5608 5597 5588 5579 5570 5563 5560 5551 5551 5545 5541 5540 5540 5532 5540 5540 5539 5540 5538 5540
5771 5768 5765 5761 5756 5752 5747 5742 5736 5730 5725 5719 5713 5707 5700 5692 5683 5676 5667 5659 5650 5642 5628 5618 5610 5601 5590 5579 5568 5561 5553 5538 5533 5529 5523 5517 5519 5514 5512 5510 5511 5512 5516 5515 5518 5520 5510
5765 5762 5758 5754 5750 5745 5739 5733 5728 5722 5717 5711 5703 5695 5687 5679 5671 5660 5651 5642 5632 5620 5607 5599 5587 5575 5561 5555 5544 5532 5524 5517 5510 5498 5496 5498 5501 5496 5495 5492 5496 5497 5501 5499 5499 5499 5497
5759 5756 5752 5748 5743 5737 5731 5725 5719 5713 5707 5700 5691 5682 5673 5664 5654 5644 5634 5624 5612 5600 5585 5569 5559 5550 5535 5523 5521 5509 5499 5492 5486 5479 5472 5473 5481 5479 5479 5475 5478 5483 5486 5486 5483 5487 5492
5754 5750 5746 5741 5735 5729 5722 5716 5711 5704 5696 5688 5678 5669 5658 5647 5637 5626 5615 5601 5589 5574 5560 5548 5538 5527 5519 5502 5492 5488 5483 5474 5467 5462 5458 5452 5459 5457 5456 5457 5464 5470 5469 5471 5469 5471 5472
5748 5744 5739 5733 5727 5720 5714 5708 5701 5693 5684 5675 5664 5654 5642 5632 5618 5606 5593 5578 5564 5550 5537 5524 5512 5506 5497 5490 5480 5472 5468 5459 5455 5450 5445 5442 5440 5444 5442 5443 5449 5452 5454 5459 5457 5460 5461
5741 5736 5731 5726 5719 5712 5706 5699 5690 5681 5671 5661 5651 5639 5627 5614 5600 5585 5571 5556 5540 5525 5517 5508 5497 5488 5482 5475 5467 5460 5456 5452 5445 5443 5440 5436 5433 5435 5434 5434 5434 5439 5439 5442 5445 5451 5447
5734 5729 5724 5717 5710 5704 5697 5688 5680 5669 5658 5648 5636 5625 5608 5594 5582 5563 5549 5535 5523 5512 5498 5491 5483 5474 5467 5461 5458 5452 5448 5442 5440 5436 5433 5431 5427 5425 5429 5429 5426 5427 5428 5431 5432 5437 5436
5728 5723 5716 5708 5702 5694 5686 5677 5667 5656 5646 5634 5621 5605 5590 5577 5562 5547 5529 5516 5507 5498 5488 5479 5471 5463 5459 5453 5446 5445 5441 5439 5434 5430 5426 5425 5421 5418 5420 5424 5420 5417 5418 5418 5420 5422 5423
5721 5715 5707 5700 5692 5683 5675 5665 5653 5642 5631 5619 5606 5589 5574 5558 5540 5525 5516 5506 5494 5484 5475 5467 5461 5454 5450 5448 5442 5437 5435 5432 5428 5424 5420 5418 5417 5415 5413 5409 5407 5408 5409 5410 5412 5417 5416
5713 5705 5698 5691 5682 5674 5663 5652 5641 5630 5618 5606 5593 5578 5558 5540 5524 5510 5498 5490 5480 5472 5467 5457 5454 5446 5440 5439 5437 5433 5429 5427 5423 5419 5415 5412 5411 5410 5408 5403 5401 5401 5401 5401 5404 5408 5409
5703 5697 5689 5681 5672 5663 5652 5640 5628 5618 5605 5592 5576 5564 5548 5530 5513 5500 5487 5476 5467 5459 5453 5450 5444 5441 5435 5431 5428 5426 5423 5421 5418 5415 5411 5409 5407 5403 5402 5400 5397 5395 5395 5395 5397 5401 5403
5695 5688 5680 5671 5661 5651 5641 5630 5617 5605 5591 5575 5558 5547 5531 5519 5503 5490 5479 5468 5458 5449 5448 5441 5436 5434 5431 5427 5424 5422 5418 5416 5413 5410 5407 5405 5403 5400 5399 5396 5393 5393 5392 5391 5392 5395 5397
5686 5679 5671 5661 5651 5640 5630 5617 5605 5591 5576 5561 5545 5528 5514 5505 5489 5476 5465 5457 5450 5446 5441 5437 5431 5427 5425 5422 5420 5416 5413 5412 5410 5408 5404 5403 5400 5398 5397 5394 5392 5390 5388 5387 5389 5390 5391
5677 5670 5661 5651 5641 5630 5619 5606 5593 5578 5563 5546 5529 5513 5499 5486 5477 5470 5457 5449 5444 5441 5437 5428 5425 5421 5418 5417 5414 5413 5410 5408 5406 5402 5400 5399 5398 5396 5394 5392 5392 5389 5387 5387 5386 5387 5387
5669 5660 5650 5641 5631 5621 5608 5595 5582 5566 5550 5532 5518 5502 5486 5473 5465 5454 5447 5439 5435 5433 5429 5424 5419 5414 5412 5410 5409 5406 5404 5401 5401 5399 5397 5395 5393 5393 5390 5389 5387 5387 5385 5384 5383 5384 5384
5659 5650 5641 5632 5621 5610 5598 5584 5569 5553 5538 5523 5510 5495 5481 5468 5457 5447 5442 5435 5429 5424 5420 5415 5412 5409 5407 5405 5403 5401 5399 5397 5394 5392 5391 5391 5389 5387 5385 5384 5383 5381 5380 5380 5381 5383 5378
5649 5641 5632 5622 5612 5601 5588 5573 5557 5542 5528 5515 5504 5490 5477 5464 5454 5444 5437 5431 5424 5418 5414 5411 5407 5403 5400 5398 5396 5394 5392 5390 5388 5386 5384 5383 5382 5380 5379 5378 5378 5375 5374 5374 5373 5371 5371
5640 5632 5623 5613 5603 5591 5577 5562 5547 5533 5520 5508 5499 5486 5473 5461 5451 5444 5435 5429 5422 5416 5412 5406 5401 5397 5394 5391 5390 5388 5385 5383 5381 5379 5378 5376 5374 5372 5371 5369 5367 5365 5364 5363 5362 5361 5360